Weather History for KPHL - October, 2012

Change the Weather History Date:

Sunday, October 7, 2012

  Actual Average Record
Temperature  
Mean Temperature 51 °F 61 °F  
Max Temperature 54 °F 70 °F 93 °F (1941)
Min Temperature 48 °F 52 °F 37 °F (1954)
Degree Days  
Heating Degree Days 14 6  
Month to date heating degree days 17 33  
Since 1 July heating degree days 31 71  
Cooling Degree Days 0 1  
Month to date cooling degree days 27 11  
Year to date cooling degree days 1599 1289  
Growing Degree Days 1 (Base 50)    
Moisture  
Dew Point 42 °F    
Average Humidity 74    
Maximum Humidity 93    
Minimum Humidity 54    
Precipitation  
Precipitation 0.17 in 0.10 in 1.60 in (1951)
Month to date precipitation 0.25 0.77  
Year to date precipitation 26.64 32.57  
Snow  
Snow 0.00 in 0.00 in 0.00 in (1870)
Month to date snowfall 0.0 0.0  
Since 1 July snowfall 0.0 0.0  
Since 1 September snowfall 0.0 0.0  
Snow Depth 0.00 in    
Sea Level Pressure  
Sea Level Pressure 30.10 in    
Wind  
Wind Speed 4 mph (NW)    
Max Wind Speed 10 mph    
Max Gust Speed 15 mph    
Visibility 9 miles    
Events Rain    
T = Trace of Precipitation, MM = Missing Value Source: NWS Daily Summary

Daily Weather History Graph

Daily Weather History Graph

Search for Another Location

Airport or City:

Trip Planner

Search our weather history database for the weather conditions in past years. The results will help you decide how hot, cold, wet, or windy it might be!

Date:

Astronomy

Oct. 07, 2012 Rise Set
Actual Time 7:03 AM EDT 6:32 PM EDT
Civil Twilight 6:36 AM EDT 6:59 PM EDT
Nautical Twilight 6:05 AM EDT 7:31 PM EDT
Astronomical Twilight 5:33 AM EDT 8:02 PM EDT
Moon 11:42 PM EDT (10/7) 1:38 PM EDT (10/7)
Length of Visible Light 12h 23m
Length of Day
11h 29m
Waning Gibbous, 56% of the Moon is Illuminated
Oct 7
Waning Gibbous
Oct 8
Last Quarter
Oct 15
New
Oct 21
First Quarter
Oct 29
Full

Hourly Weather History & Observations

Time (EDT) Temp. Dew Point Humidity Pressure Visibility Wind Dir Wind Speed Gust Speed Precip Events Conditions
12:54 AM 54.0 °F 43.0 °F 66% 30.04 in 10.0 mi NW 5.8 mph - N/A   Clear
1:54 AM 52.0 °F 41.0 °F 66% 30.05 in 10.0 mi NNW 6.9 mph - N/A   Clear
2:54 AM 52.0 °F 37.9 °F 59% 30.04 in 10.0 mi North 6.9 mph - N/A   Partly Cloudy
3:54 AM 51.1 °F 37.0 °F 59% 30.04 in 10.0 mi North 4.6 mph - N/A   Partly Cloudy
4:54 AM 50.0 °F 37.9 °F 63% 30.08 in 10.0 mi NNW 4.6 mph - N/A   Scattered Clouds
5:54 AM 50.0 °F 37.9 °F 63% 30.09 in 10.0 mi North 3.5 mph - N/A   Scattered Clouds
6:54 AM 51.1 °F 39.0 °F 63% 30.09 in 10.0 mi NNW 3.5 mph - N/A   Mostly Cloudy
7:54 AM 52.0 °F 39.9 °F 63% 30.09 in 10.0 mi North 3.5 mph - N/A   Overcast
8:54 AM 54.0 °F 39.0 °F 57% 30.12 in 10.0 mi Calm Calm - N/A   Overcast
9:54 AM 54.0 °F 37.9 °F 55% 30.13 in 10.0 mi Calm Calm - N/A   Overcast
10:54 AM 54.0 °F 42.1 °F 64% 30.14 in 9.0 mi NW 3.5 mph - 0.01 in Rain Light Rain
11:54 AM 52.0 °F 43.0 °F 71% 30.14 in 9.0 mi Calm Calm - 0.03 in Rain Light Rain
12:22 PM 53.6 °F 39.2 °F 58% 30.14 in 10.0 mi Calm Calm - 0.01 in Rain Light Rain
12:54 PM 52.0 °F 41.0 °F 66% 30.11 in 10.0 mi Calm Calm - 0.01 in Rain Light Rain
1:54 PM 53.1 °F 44.1 °F 71% 30.09 in 10.0 mi Calm Calm - 0.00 in   Overcast
2:54 PM 53.1 °F 42.1 °F 66% 30.07 in 10.0 mi Calm Calm - N/A   Overcast
3:54 PM 52.0 °F 41.0 °F 66% 30.05 in 10.0 mi Calm Calm - 0.00 in Rain Light Rain
4:54 PM 53.1 °F 41.0 °F 64% 30.04 in 10.0 mi SSW 3.5 mph - 0.00 in   Overcast
5:54 PM 53.1 °F 44.1 °F 71% 30.05 in 10.0 mi Variable 4.6 mph - N/A   Overcast
6:51 PM 51.8 °F 46.4 °F 82% 30.09 in 6.0 mi WNW 9.2 mph - N/A Rain Rain
6:54 PM 52.0 °F 46.0 °F 80% 30.09 in 6.0 mi WNW 8.1 mph - 0.02 in Rain Rain
7:54 PM 51.1 °F 46.9 °F 86% 30.12 in 6.0 mi West 8.1 mph - 0.05 in Rain Light Rain
8:54 PM 50.0 °F 46.0 °F 86% 30.14 in 6.0 mi WNW 8.1 mph - 0.05 in Rain Light Rain
9:07 PM 50.0 °F 46.4 °F 87% 30.14 in 10.0 mi Variable 3.5 mph - 0.00 in   Overcast
9:54 PM 51.1 °F 45.0 °F 80% 30.15 in 10.0 mi WSW 4.6 mph - 0.00 in   Overcast
10:54 PM 48.9 °F 46.0 °F 90% 30.14 in 10.0 mi WSW 4.6 mph - N/A   Scattered Clouds
11:54 PM 48.0 °F 46.0 °F 93% 30.15 in 10.0 mi West 5.8 mph - N/A   Partly Cloudy